sat.trackr.live / text

‹ back to catalog

STARLINK-36534

NORAD 67496 · 2026-012D

PAYLOAD ACTIVE UNKNOWN

§ Identity

Operator
Country
US
Launch date
2026-01-18
Launch site
AFETR
Launch vehicle
Mass (kg)
RCS (m²)

Purposes: comms

External: N2YO · Heavens-Above · Gunter

§ Orbital elements

Epoch: 2026-05-24T15:05:44.033568Z

Period
94.27 min
Inclination
42.9998°
Eccentricity
0.0001390
Mean motion
15.27586289 rev/d
Perigee alt
482.1 km
Apogee alt
484.0 km
Semi-major
6,861.2 km
B*
8.8900e-4
RAAN
245.7297°
Arg perigee
274.6925°
Mean anomaly
85.3768°
Rev number
1,937

§ Raw data

STARLINK-365341 67496U 26012D   26144.62898187  .00024287  00000+0  88900-3 0  99992 67496  42.9998 245.7297 0001390 274.6925  85.3768 15.27586289 19379

JSON: /api/v1/satellites/67496 · /tle

For live sub-satellite position, see the globe view (requires WebGL).

§ Visibility from observer

Set your observer location to see the next 7 days of passes ≥ 10°. The values pass through the URL so the page stays shareable.

No JS? Fill the form by hand. The geolocation button needs JavaScript.